This is the latest recevied weather packets stored in our database for station/object YB3RDW-13. If no packets are shown the sender has not sent any weather packets the latest 10 day(s).
| Time | Temp. | Humidity | Pressure | Rain* | Wind** | Luminosity | Snow |
|---|---|---|---|---|---|---|---|
| 1777349217 | 32.78° C | 68% | 1011 hPa | 0 mm | - | 173 W/m² | - |
| 1777348918 | 32.78° C | 68% | 1011 hPa | 0 mm | - | 828 W/m² | - |
| 1777348617 | 32.78° C | 68% | 1011 hPa | 0 mm | - | 292 W/m² | - |
| 1777348318 | 33.33° C | 67% | 1011 hPa | 0 mm | - | 645 W/m² | - |
| 1777348018 | 32.78° C | 68% | 1012 hPa | 0 mm | - | 351 W/m² | - |
| 1777347718 | 32.22° C | 69% | 1012 hPa | 0 mm | - | 816 W/m² | - |
| 1777347421 | 32.22° C | 69% | 1012 hPa | 0 mm | - | 687 W/m² | - |
| 1777347118 | 32.78° C | 68% | 1012 hPa | 0 mm | - | 368 W/m² | - |
| 1777346817 | 31.67° C | 71% | 1012 hPa | 0 mm | - | 783 W/m² | - |
| 1777346517 | 32.22° C | 71% | 1012 hPa | 0 mm | - | 200 W/m² | - |
| 1777346217 | 31.67° C | 72% | 1012 hPa | 0 mm | - | 295 W/m² | - |
| 1777345917 | 31.67° C | 72% | 1012 hPa | 0 mm | - | 264 W/m² | - |
| 1777345617 | 31.67° C | 72% | 1012 hPa | 0 mm | - | 691 W/m² | - |
| 1777345317 | 31.67° C | 72% | 1012 hPa | 0 mm | - | 638 W/m² | - |
| 1777345018 | 31.11° C | 73% | 1013 hPa | 0 mm | - | 240 W/m² | - |
| 1777344717 | 31.67° C | 74% | 1012 hPa | 0 mm | - | 442 W/m² | - |
| 1777344421 | 31.67° C | 74% | 1013 hPa | 0 mm | - | 580 W/m² | - |
| 1777344118 | 31.11° C | 76% | 1013 hPa | 0 mm | - | 605 W/m² | - |
| 1777343818 | 31.11° C | 76% | 1013 hPa | 0 mm | - | 266 W/m² | - |
| 1777343517 | 30.56° C | 78% | 1013 hPa | 0 mm | - | 426 W/m² | - |
| 1777343218 | 31.11° C | 77% | 1013 hPa | 0 mm | - | 269 W/m² | - |
| 1777342918 | 31.67° C | 76% | 1013 hPa | 0 mm | - | 280 W/m² | - |
| 1777342618 | 31.67° C | 76% | 1013 hPa | 0 mm | - | 363 W/m² | - |
| 1777342318 | 31.11° C | 78% | 1013 hPa | 0 mm | - | 388 W/m² | - |
| 1777342018 | 30.56° C | 79% | 1013 hPa | 0 mm | - | 384 W/m² | - |
* Rain latest hour (hover to see other rain measurements)
** Current wind speed in m/s (hover to see current wind gust speed)